DELTA 1 DEB

Satellite information

Favourite Embed

Satellite Type and Status

DEBRISIN ORBIT

Key statistics

Satellite DELTA 1 DEB at a glance.

Uptime

18871

Days in orbit

Revolutions

≈ 14.0

Per day

Orbit

SSO

Sun Synchronous Orbit

Inclination

102.6

Latest

Satellite identification and parameters

Extended collection of information and parameters for DELTA 1 DEB.

Object identification

Identified? True

Debris? True

Object name: DELTA 1 DEB

International designator: 1973-086EQ

Object number (NORAD): 7179

Object ID (CCSDS): 7179

Country: UNITED STATES OF AMERICA (US)

Current information (Y/N): Y

RCS size: SMALL

Orbital parameters

Period: 102.738 minutes

Inclination: 102.6166 deg

SMA: 7266.306 km

Apoapsis: 894.806 km

Periapsis: 881.536 km

RAAN: 75.2479 deg

Eccentricy: 0.0009131

Argument of periapsis: 266.172 deg

Mean anomaly: 150.5126 deg

Mean motion: 14.01626214 rev/day

Mean motion (dot): 0.00013678 rev/day2

B* drag term: 0.0090553 1/REarth

Two-line elements (TLE)

Creation date: July 6, 2025, 10:16 p.m.

Reference frame: TEME

Reference center: EARTH

Epoch: July 6, 2025, 3:48 p.m. UTC

TLE line 0: 0 DELTA 1 DEB

TLE line 1: 1 7179U 73086EQ 25187.65891936 .00013678 00000-0 90553-2 0 9997

TLE line 2: 2 7179 102.6166 75.2479 0009131 266.1720 150.5126 14.01626214442658

Live tracking on map

Real-time ground track for satellite DELTA 1 DEB.

In-orbit conjunctions

A list of the most updated potential collisions computed for object DELTA 1 DEB.

Target Orbit TCA Probability of collision Miss distance Type
OPS 7613 (P/L 5) DEB LEO 2025-02-22 07:18:52 0.0001231254 345.0 (m) DEBRIS
COSMOS 469 LEO 2024-06-22 06:29:40 0.0004355577 628.0 (m) PAYLOAD

Associated space launch

Meteorological satellite using radiometric imaging

DELTA 1 DEB was lifted into orbit during the mission ‘Delta 0300 | NOAA 3’, on board a Delta 0300 space rocket.

The launch took place on Nov. 6, 1973, 5:02 p.m. from Space Launch Complex 2W.

For more information about the launch, click the button.

Launch to space Delta 0300 | NOAA 3
Delta 0300 | NOAA 3

Agency: N/A

Status: Launch Successful

Launch date: Nov. 6, 1973, 5:02 p.m. UTC

Rocket: Delta 0300

Launch pad: Space Launch Complex 2W

Location: Vandenberg SFB, CA, USA

...

Latest news about this satellite

There are no fresh news available about this satellite. Check back as we update our databases every day.


Newsletter sign-up

Weekly statistics, charts and insights to help you stay on top of the space industry.